Flag for U.S.A. Weather past 2 weeks in New City, New York, U.S.A.

Now
70 °F

Clear.


Feels Like: 74 °F
Forecast: 69 / 89 °F
Wind: No wind

Location: Westchester County Airport

Current Time: Aug 3, 2015 at 5:35:44 AM

Latest Report: Aug 3, 2015 at 4:56 AM


Visibility: 10 mi

Pressure: 29.83 "Hg

Humidity: 71%

Dew point: 60 °F

Location of New CityLocation

Historic Weather in New City — Graph

°F

New City temperature yesterday

Maximum temperature yesterday: 84 °F (at 12:56 PM)
Minimum temperature yesterday: 64 °F (at 5:56 AM)
Average temperature yesterday: 75 °F

Past Weeks' High & Low Weather Summary

 TemperatureHumidityPressure
High91 °F (Jul 19, 3:56 PM)100% (Jul 30, 5:00 PM)30.02 "Hg (Jul 30, 5:00 PM)
Low61 °F (Jul 23, 5:56 AM)31% (Aug 2, 12:56 PM)29.57 "Hg (Jul 21, 5:56 PM)
Average76 °F66%29.85 "Hg
* Reported Jul 19 3:56 AM — Aug 3 3:56 AM, New City, Weather by CustomWeather, © 2015

Note: Actual official high and low records may vary slightly from our data, if they occured in-between our weather recording intervals... More about our weather records

Advertising

New City weather history for previous 24 hours

 ConditionsComfort  
Time TempWeatherWind HumidityBarometerVisibility
3:56 AM
Mon, Aug 3
69 °FClear.No wind81%29.83 "Hg10 mi
2:56 AM70 °FClear.No wind79%29.83 "Hg10 mi
1:56 AM68 °FClear.5 mph90%29.84 "Hg10 mi
12:56 AM68 °FClear.No wind90%29.85 "Hg10 mi
11:56 PM
Sun, Aug 2
69 °FClear.No wind87%29.85 "Hg10 mi
10:56 PM70 °FClear.No wind81%29.85 "Hg10 mi
9:56 PM71 °FClear.6 mph73%29.87 "Hg10 mi
8:56 PM76 °FSunny.No wind58%29.88 "Hg10 mi
7:56 PM78 °FPassing clouds.No wind52%29.86 "Hg10 mi
6:56 PM81 °FPassing clouds.7 mph45%29.85 "Hg10 mi
5:56 PM84 °FPassing clouds.7 mph41%29.86 "Hg10 mi
4:56 PM84 °FScattered clouds.9 mph38%29.86 "Hg10 mi
3:56 PM83 °FScattered clouds.7 mph40%29.88 "Hg10 mi
2:56 PM83 °FScattered clouds.9 mph43%29.88 "Hg10 mi
1:56 PM80 °FScattered clouds.5 mph45%29.89 "Hg10 mi
12:56 PM84 °FScattered clouds.5 mph31%29.90 "Hg10 mi
11:56 AM83 °FPassing clouds.7 mph40%29.92 "Hg10 mi
10:56 AM80 °FPassing clouds.3 mph42%29.92 "Hg10 mi
9:56 AM78 °FSunny.6 mph48%29.91 "Hg10 mi
8:56 AM77 °FSunny.No wind52%29.91 "Hg10 mi
7:56 AM73 °FSunny.No wind76%29.90 "Hg10 mi
6:56 AM68 °FSunny.No wind82%29.89 "Hg10 mi
5:56 AM64 °FClear.5 mph87%29.87 "Hg10 mi
Weather by CustomWeather, © 2015

See weather overviewHow to use our weather pages